Location: ?????
(55.6500°N, 37.2500°E)
Time: 06:19:02
(UTC+00:00)

Cosmos 1766 - Pass Details

Date: 19 May 2025
Orbit: 443 x 457 km, 82.5° (Epoch: 15 June)

Event Time Altitude Azimuth Distance (km) Brightness Sun altitude
Rises 19:51:54 0° 351° (N) 2,469 8.4 -11.7°
Reaches altitude 10° 19:54:02 10° 358° (N) 1,589 6.9 -11.8°
Maximum altitude 19:57:23 47° 73° (ENE) 604 3.5 -12.0°
Enters shadow 19:59:32 19° 141° (SE) 1,114 4.3 -12.1°
